Details From LEXJ - Santander
To LECO - A Coruna
Flight Number -
Tags generated
Created
Modified
Stats Distance 199 nm / 369 km
Max Altitude 22,400 ft / 6,828 m
Waypoints 3
Social Downloads 1
Likes 0
Share VATSIM

Download

Looking for another format? Having issues loading an existing format? Contact us
Advertisement - Login to hide

Notes

Basic altitude profile: - Ascent Rate: 2500ft/min - Ascent Speed: 250kts - Cruise Altitude: 35000ft - Cruise Speed: 420kts - Descent Rate: 1500ft/min - Descent Speed: 250kts

Route

LEXJ RATPO LECO

ID Type Via Altitude (ft/m) Position (lat/lon) Dist (leg/tot) Name
O LEXJ APT - 0 / 0 43.42719 / -3.82047 - / 0 nm Santander
RATPO FIX - 22,400 / 6,828 43.31711 / -5.98170 94 / 94 nm
O LECO APT - 0 / 0 43.30226 / -8.37709 104 / 199 nm A Coruna

Altitude Profile

Advertisement - Login to hide

Weather


0- 5 10 15 20 25 30 35+ Temperature / °C

Clouds and Precipitation
Forecast for 2019-05-19 18:00 UTC. Updated 5 hours ago

Ground ~20,000 ft ~40,000 ft Winds

LEXJ

Details ICAO LEXJ (SDR)
Name Santander
Region Spain
Timezone Europe/Madrid (UTC+2.0)
Stats Elevation 16 ft / 5 m (AMSL)
Location 43.426900° -3.820000°
Runways 1
Magnetic Variation 0.731° W

METAR

LEXJ 192030Z 23005KT 9999 FEW024 12/10 Q1016

Decode

TAF

TAF LEXJ 192000Z 1921/2021 22007KT 9999 SCT025 TX16/2014Z TN08/2005Z PROB30 TEMPO 2004/2006 3000 BR BKN010 PROB40 2012/2018 04010KT

Decode

Departure Runways

ID Width Length Bearing (true/mag) Surface Threshold Overrun Markings Lighting
11 148 ft / 45 m 7,619 ft / 2,322 m 110.20° / 110.93° ASPHALT 0 ft / 0 m 0 ft / 0 m PREC-APP EDGE THRESHOLD REIL-OMNI
29 148 ft / 45 m 7,619 ft / 2,322 m 290.21° / 290.95° ASPHALT 0 ft / 0 m 0 ft / 0 m PREC-APP EDGE THRESHOLD REIL-OMNI

LECO

Details ICAO LECO (LCG)
Name A Coruna
Region Spain
Timezone Europe/Madrid (UTC+2.0)
Stats Elevation 330 ft / 101 m (AMSL)
Location 43.301900° -8.377220°
Runways 1
Magnetic Variation 2.200° W

METAR

LECO 192030Z 36005KT 320V040 9999 FEW025 12/09 Q1016 NOSIG

Decode

TAF

TAF LECO 192000Z 1921/2021 36005KT 9999 SCT025 TX17/2015Z TN04/2005Z PROB40 TEMPO 1922/2007 3000 BCFG PROB30 TEMPO 1922/2007 1500 BCFG

Decode

Destination Runways

ID Width Length Bearing (true/mag) Surface Threshold Overrun Markings Lighting
03 148 ft / 45 m 6,364 ft / 1,940 m 30.94° / 33.14° ASPHALT 0 ft / 0 m 0 ft / 0 m PREC-APP CENTERLINE EDGE THRESHOLD REIL-OMNI
21 148 ft / 45 m 6,364 ft / 1,940 m 210.94° / 213.14° ASPHALT 0 ft / 0 m 0 ft / 0 m PREC-APP CENTERLINE EDGE THRESHOLD REIL-OMNI

Approach Navaids

Runway Type Ident Frequency Range Bearing (true/mag) Slope Elevation
21 DME LCO 109.90 MHz 18 nm / 33 km - - 293 ft / 89 m (AMSL)
21 LOC-ILS LCO 109.90 MHz 18 nm / 33 km 210.94° / 213.14 ° - 330 ft / 101 m (AMSL)
21 GS LCO 109.90 MHz 10 nm / 19 km 210.94° / 213.14 ° 3.00° 330 ft / 101 m (AMSL)

Popular Alternatives